Year,Month,Day,Hour,Minute,Value (Times are PST for temperature in C)
2012,08,16,00,00,23.70
2012,08,16,00,01,23.70
2012,08,16,00,02,23.70
2012,08,16,00,03,23.70
2012,08,16,00,04,23.70
2012,08,16,00,05,23.60
2012,08,16,00,06,23.70
2012,08,16,00,07,23.70
2012,08,16,00,08,23.70
2012,08,16,00,09,23.80
2012,08,16,00,10,23.80
2012,08,16,00,11,23.80
2012,08,16,00,12,23.80
2012,08,16,00,13,23.90
2012,08,16,00,14,24.00
2012,08,16,00,15,24.10
2012,08,16,00,16,24.20
2012,08,16,00,17,24.30
2012,08,16,00,18,24.30
2012,08,16,00,19,24.30
2012,08,16,00,20,24.30
2012,08,16,00,21,24.30
2012,08,16,00,22,24.30
2012,08,16,00,23,24.20
2012,08,16,00,24,24.20
2012,08,16,00,25,24.20
2012,08,16,00,26,24.20
2012,08,16,00,27,24.20
2012,08,16,00,28,24.20
2012,08,16,00,29,24.20
2012,08,16,00,30,24.20
2012,08,16,00,31,24.20
2012,08,16,00,32,24.20
2012,08,16,00,33,24.20
2012,08,16,00,34,24.20
2012,08,16,00,35,24.10
2012,08,16,00,36,24.10
2012,08,16,00,37,24.10
2012,08,16,00,38,24.10
2012,08,16,00,39,24.00
2012,08,16,00,40,24.00
2012,08,16,00,41,23.90
2012,08,16,00,42,23.90
2012,08,16,00,43,23.90
2012,08,16,00,44,24.00
2012,08,16,00,45,24.00
2012,08,16,00,46,24.00
2012,08,16,00,47,24.10
2012,08,16,00,48,24.10
2012,08,16,00,49,24.10
2012,08,16,00,50,24.20
2012,08,16,00,51,24.10
2012,08,16,00,52,24.10
2012,08,16,00,53,24.10
2012,08,16,00,54,24.10
2012,08,16,00,55,24.10
2012,08,16,00,56,24.10
2012,08,16,00,57,24.20
2012,08,16,00,58,24.20
2012,08,16,00,59,24.30
2012,08,16,01,00,24.30
2012,08,16,01,01,24.30
2012,08,16,01,02,24.40
2012,08,16,01,03,24.30
2012,08,16,01,04,24.30
2012,08,16,01,05,24.30
2012,08,16,01,06,24.30
2012,08,16,01,07,24.30
2012,08,16,01,08,24.20
2012,08,16,01,09,24.20
2012,08,16,01,10,24.20
2012,08,16,01,11,24.20
2012,08,16,01,12,24.20
2012,08,16,01,13,24.20
2012,08,16,01,14,24.20
2012,08,16,01,15,24.20
2012,08,16,01,16,24.20
2012,08,16,01,17,24.20
2012,08,16,01,18,24.20
2012,08,16,01,19,24.20
2012,08,16,01,20,24.20
2012,08,16,01,21,24.10
2012,08,16,01,22,24.10
2012,08,16,01,23,23.90
2012,08,16,01,24,23.80
2012,08,16,01,25,23.60
2012,08,16,01,26,23.40
2012,08,16,01,27,23.10
2012,08,16,01,28,22.90
2012,08,16,01,29,22.70
2012,08,16,01,30,22.50
2012,08,16,01,31,22.30
2012,08,16,01,32,22.10
2012,08,16,01,33,22.00
2012,08,16,01,34,21.90
2012,08,16,01,35,21.80
2012,08,16,01,36,21.70
2012,08,16,01,37,21.60
2012,08,16,01,38,21.50
2012,08,16,01,39,21.50
2012,08,16,01,40,21.40
2012,08,16,01,41,21.50
2012,08,16,01,42,21.50
2012,08,16,01,43,21.50
2012,08,16,01,44,21.50
2012,08,16,01,45,21.50
2012,08,16,01,46,21.50
2012,08,16,01,47,21.40
2012,08,16,01,48,21.40
2012,08,16,01,49,21.40
2012,08,16,01,50,21.30
2012,08,16,01,51,21.30
2012,08,16,01,52,21.20
2012,08,16,01,53,21.20
2012,08,16,01,54,21.20
2012,08,16,01,55,21.20
2012,08,16,01,56,21.20
2012,08,16,01,57,21.30
2012,08,16,01,58,21.30
2012,08,16,01,59,21.40
2012,08,16,02,00,21.40
2012,08,16,02,01,21.50
2012,08,16,02,02,21.60
2012,08,16,02,03,21.60
2012,08,16,02,04,21.70
2012,08,16,02,05,21.70
2012,08,16,02,06,21.80
2012,08,16,02,07,21.80
2012,08,16,02,08,21.90
2012,08,16,02,09,21.90
2012,08,16,02,10,21.80
2012,08,16,02,11,21.80
2012,08,16,02,12,21.80
2012,08,16,02,13,21.80
2012,08,16,02,14,21.80
2012,08,16,02,15,21.80
2012,08,16,02,16,21.80
2012,08,16,02,17,21.80
2012,08,16,02,18,21.80
2012,08,16,02,19,21.80
2012,08,16,02,20,21.80
2012,08,16,02,21,21.80
2012,08,16,02,22,21.70
2012,08,16,02,23,21.70
2012,08,16,02,24,21.70
2012,08,16,02,25,21.70
2012,08,16,02,26,21.70
2012,08,16,02,27,21.80
2012,08,16,02,28,21.80
2012,08,16,02,29,21.80
2012,08,16,02,30,21.80
2012,08,16,02,31,21.80
2012,08,16,02,32,21.80
2012,08,16,02,33,21.80
2012,08,16,02,34,21.90
2012,08,16,02,35,21.90
2012,08,16,02,36,22.00
2012,08,16,02,37,22.10
2012,08,16,02,38,22.10
2012,08,16,02,39,22.10
2012,08,16,02,40,22.10
2012,08,16,02,41,22.10
2012,08,16,02,42,22.10
2012,08,16,02,43,22.10
2012,08,16,02,44,22.10
2012,08,16,02,45,22.10
2012,08,16,02,46,22.10
2012,08,16,02,47,22.10
2012,08,16,02,48,22.10
2012,08,16,02,49,22.00
2012,08,16,02,50,21.90
2012,08,16,02,51,21.90
2012,08,16,02,52,21.80
2012,08,16,02,53,21.80
2012,08,16,02,54,21.70
2012,08,16,02,55,21.70
2012,08,16,02,56,21.70
2012,08,16,02,57,21.70
2012,08,16,02,58,21.60
2012,08,16,02,59,21.50
2012,08,16,03,00,21.40
2012,08,16,03,01,21.40
2012,08,16,03,02,21.30
2012,08,16,03,03,21.20
2012,08,16,03,04,21.20
2012,08,16,03,05,21.10
2012,08,16,03,06,21.10
2012,08,16,03,07,21.10
2012,08,16,03,08,21.00
2012,08,16,03,09,21.00
2012,08,16,03,10,21.00
2012,08,16,03,11,20.90
2012,08,16,03,12,20.90
2012,08,16,03,13,20.90
2012,08,16,03,14,20.80
2012,08,16,03,15,20.80
2012,08,16,03,16,20.70
2012,08,16,03,17,20.60
2012,08,16,03,18,20.60
2012,08,16,03,19,20.50
2012,08,16,03,20,20.40
2012,08,16,03,21,20.40
2012,08,16,03,22,20.40
2012,08,16,03,23,20.30
2012,08,16,03,24,20.40
2012,08,16,03,25,20.40
2012,08,16,03,26,20.40
2012,08,16,03,27,20.40
2012,08,16,03,28,20.30
2012,08,16,03,29,20.30
2012,08,16,03,30,20.30
2012,08,16,03,31,20.30
2012,08,16,03,32,20.30
2012,08,16,03,33,20.20
2012,08,16,03,34,20.20
2012,08,16,03,35,20.10
2012,08,16,03,36,20.10
2012,08,16,03,37,20.10
2012,08,16,03,38,20.10
2012,08,16,03,39,20.00
2012,08,16,03,40,20.00
2012,08,16,03,41,19.90
2012,08,16,03,42,19.90
2012,08,16,03,43,19.80
2012,08,16,03,44,19.80
2012,08,16,03,45,19.80
2012,08,16,03,46,19.70
2012,08,16,03,47,19.70
2012,08,16,03,48,19.60
2012,08,16,03,49,19.60
2012,08,16,03,50,19.50
2012,08,16,03,51,19.50
2012,08,16,03,52,19.40
2012,08,16,03,53,19.40
2012,08,16,03,54,19.30
2012,08,16,03,55,19.30
2012,08,16,03,56,19.30
2012,08,16,03,57,19.30
2012,08,16,03,58,19.30
2012,08,16,03,59,19.30
2012,08,16,04,00,19.30
2012,08,16,04,01,19.30
2012,08,16,04,02,19.30
2012,08,16,04,03,19.20
2012,08,16,04,04,19.20
2012,08,16,04,05,19.20
2012,08,16,04,06,19.10
2012,08,16,04,07,19.10
2012,08,16,04,08,19.00
2012,08,16,04,09,19.00
2012,08,16,04,10,19.00
2012,08,16,04,11,18.90
2012,08,16,04,12,18.90
2012,08,16,04,13,18.90
2012,08,16,04,14,18.80
2012,08,16,04,15,18.80
2012,08,16,04,16,18.80
2012,08,16,04,17,18.80
2012,08,16,04,18,18.80
2012,08,16,04,19,18.80
2012,08,16,04,20,18.70
2012,08,16,04,21,18.70
2012,08,16,04,22,18.70
2012,08,16,04,23,18.70
2012,08,16,04,24,18.70
2012,08,16,04,25,18.70
2012,08,16,04,26,18.80
2012,08,16,04,27,18.80
2012,08,16,04,28,18.80
2012,08,16,04,29,18.80
2012,08,16,04,30,18.80
2012,08,16,04,31,18.80
2012,08,16,04,32,18.70
2012,08,16,04,33,18.70
2012,08,16,04,34,18.70
2012,08,16,04,35,18.70
2012,08,16,04,36,18.70
2012,08,16,04,37,18.80
2012,08,16,04,38,18.80
2012,08,16,04,39,18.90
2012,08,16,04,40,18.90
2012,08,16,04,41,18.90
2012,08,16,04,42,19.00
2012,08,16,04,43,19.00
2012,08,16,04,44,19.10
2012,08,16,04,45,19.00
2012,08,16,04,46,19.00
2012,08,16,04,47,19.00
2012,08,16,04,48,19.00
2012,08,16,04,49,19.00
2012,08,16,04,50,18.90
2012,08,16,04,51,18.90
2012,08,16,04,52,18.90
2012,08,16,04,53,18.90
2012,08,16,04,54,18.90
2012,08,16,04,55,18.80
2012,08,16,04,56,18.80
2012,08,16,04,57,18.80
2012,08,16,04,58,18.80
2012,08,16,04,59,18.80
2012,08,16,05,00,18.80
2012,08,16,05,01,18.90
2012,08,16,05,02,18.90
2012,08,16,05,03,18.90
2012,08,16,05,04,18.90
2012,08,16,05,05,18.90
2012,08,16,05,06,19.00
2012,08,16,05,07,19.00
2012,08,16,05,08,19.00
2012,08,16,05,09,19.10
2012,08,16,05,10,19.10
2012,08,16,05,11,19.20
2012,08,16,05,12,19.20
2012,08,16,05,13,19.20
2012,08,16,05,14,19.20
2012,08,16,05,15,19.20
2012,08,16,05,16,19.20
2012,08,16,05,17,19.10
2012,08,16,05,18,19.10
2012,08,16,05,19,19.10
2012,08,16,05,20,19.10
2012,08,16,05,21,19.10
2012,08,16,05,22,19.10
2012,08,16,05,23,19.10
2012,08,16,05,24,19.10
2012,08,16,05,25,19.00
2012,08,16,05,26,19.00
2012,08,16,05,27,19.00
2012,08,16,05,28,18.90
2012,08,16,05,29,18.90
2012,08,16,05,30,18.80
2012,08,16,05,31,18.80
2012,08,16,05,32,18.80
2012,08,16,05,33,18.70
2012,08,16,05,34,18.70
2012,08,16,05,35,18.70
2012,08,16,05,36,18.70
2012,08,16,05,37,18.60
2012,08,16,05,38,18.60
2012,08,16,05,39,18.60
2012,08,16,05,40,18.60
2012,08,16,05,41,18.60
2012,08,16,05,42,18.60
2012,08,16,05,43,18.60
2012,08,16,05,44,18.60
2012,08,16,05,45,18.60
2012,08,16,05,46,18.60
2012,08,16,05,47,18.60
2012,08,16,05,48,18.60
2012,08,16,05,49,18.60
2012,08,16,05,50,18.60
2012,08,16,05,51,18.60
2012,08,16,05,52,18.60
2012,08,16,05,53,18.60
2012,08,16,05,54,18.60
2012,08,16,05,55,18.60
2012,08,16,05,56,18.60
2012,08,16,05,57,18.60
2012,08,16,05,58,18.50
2012,08,16,05,59,18.50
2012,08,16,06,00,18.50
2012,08,16,06,01,18.40
2012,08,16,06,02,18.40
2012,08,16,06,03,18.40
2012,08,16,06,04,18.40
2012,08,16,06,05,18.50
2012,08,16,06,06,18.50
2012,08,16,06,07,18.50
2012,08,16,06,08,18.60
2012,08,16,06,09,18.60
2012,08,16,06,10,18.60
2012,08,16,06,11,18.70
2012,08,16,06,12,18.70
2012,08,16,06,13,18.70
2012,08,16,06,14,18.70
2012,08,16,06,15,18.70
2012,08,16,06,16,18.70
2012,08,16,06,17,18.70
2012,08,16,06,18,18.80
2012,08,16,06,19,18.80
2012,08,16,06,20,18.80
2012,08,16,06,21,18.90
2012,08,16,06,22,18.90
2012,08,16,06,23,18.90
2012,08,16,06,24,19.00
2012,08,16,06,25,19.00
2012,08,16,06,26,19.10
2012,08,16,06,27,19.10
2012,08,16,06,28,19.00
2012,08,16,06,29,19.00
2012,08,16,06,30,19.00
2012,08,16,06,31,19.00
2012,08,16,06,32,19.00
2012,08,16,06,33,19.00
2012,08,16,06,34,19.10
2012,08,16,06,35,19.10
2012,08,16,06,36,19.10
2012,08,16,06,37,19.10
2012,08,16,06,38,19.10
2012,08,16,06,39,19.10
2012,08,16,06,40,19.10
2012,08,16,06,41,19.10
2012,08,16,06,42,19.10
2012,08,16,06,43,19.10
2012,08,16,06,44,19.20
2012,08,16,06,45,19.20
2012,08,16,06,46,19.20
2012,08,16,06,47,19.20
2012,08,16,06,48,19.20
2012,08,16,06,49,19.20
2012,08,16,06,50,19.20
2012,08,16,06,51,19.20
2012,08,16,06,52,19.10
2012,08,16,06,53,19.10
2012,08,16,06,54,19.10
2012,08,16,06,55,19.00
2012,08,16,06,56,19.00
2012,08,16,06,57,19.00
2012,08,16,06,58,18.90
2012,08,16,06,59,18.90
2012,08,16,07,00,19.00
2012,08,16,07,01,19.00
2012,08,16,07,02,19.00
2012,08,16,07,03,19.00
2012,08,16,07,04,19.00
2012,08,16,07,05,19.00
2012,08,16,07,06,19.00
2012,08,16,07,07,19.00
2012,08,16,07,08,19.00
2012,08,16,07,09,18.90
2012,08,16,07,10,18.90
2012,08,16,07,11,18.90
2012,08,16,07,12,19.00
2012,08,16,07,13,19.00
2012,08,16,07,14,19.10
2012,08,16,07,15,19.10
2012,08,16,07,16,19.20
2012,08,16,07,17,19.30
2012,08,16,07,18,19.30
2012,08,16,07,19,19.40
2012,08,16,07,20,19.40
2012,08,16,07,21,19.50
2012,08,16,07,22,19.50
2012,08,16,07,23,19.60
2012,08,16,07,24,19.60
2012,08,16,07,25,19.70
2012,08,16,07,26,19.80
2012,08,16,07,27,19.90
2012,08,16,07,28,19.90
2012,08,16,07,29,20.00
2012,08,16,07,30,20.10
2012,08,16,07,31,20.10
2012,08,16,07,32,20.20
2012,08,16,07,33,20.20
2012,08,16,07,34,20.20
2012,08,16,07,35,20.30
2012,08,16,07,36,20.30
2012,08,16,07,37,20.40
2012,08,16,07,38,20.40
2012,08,16,07,39,20.50
2012,08,16,07,40,20.60
2012,08,16,07,41,20.60
2012,08,16,07,42,20.70
2012,08,16,07,43,20.70
2012,08,16,07,44,20.70
2012,08,16,07,45,20.80
2012,08,16,07,46,20.80
2012,08,16,07,47,20.80
2012,08,16,07,48,20.90
2012,08,16,07,49,20.90
2012,08,16,07,50,20.90
2012,08,16,07,51,20.90
2012,08,16,07,52,21.00
2012,08,16,07,53,21.00
2012,08,16,07,54,21.00
2012,08,16,07,55,21.10
2012,08,16,07,56,21.10
2012,08,16,07,57,21.10
2012,08,16,07,58,21.20
2012,08,16,07,59,21.20
2012,08,16,08,00,21.20
2012,08,16,08,01,21.20
2012,08,16,08,02,21.20
2012,08,16,08,03,21.20
2012,08,16,08,04,21.20
2012,08,16,08,05,21.30
2012,08,16,08,06,21.30
2012,08,16,08,07,21.30
2012,08,16,08,08,21.30
2012,08,16,08,09,21.30
2012,08,16,08,10,21.40
2012,08,16,08,11,21.40
2012,08,16,08,12,21.40
2012,08,16,08,13,21.40
2012,08,16,08,14,21.50
2012,08,16,08,15,21.50
2012,08,16,08,16,21.60
2012,08,16,08,17,21.70
2012,08,16,08,18,21.70
2012,08,16,08,19,21.80
2012,08,16,08,20,21.80
2012,08,16,08,21,21.90
2012,08,16,08,22,21.90
2012,08,16,08,23,22.00
2012,08,16,08,24,22.00
2012,08,16,08,25,22.00
2012,08,16,08,26,22.00
2012,08,16,08,27,22.00
2012,08,16,08,28,22.00
2012,08,16,08,29,22.00
2012,08,16,08,30,22.00
2012,08,16,08,31,22.00
2012,08,16,08,32,22.00
2012,08,16,08,33,22.00
2012,08,16,08,34,22.00
2012,08,16,08,35,22.10
2012,08,16,08,36,22.10
2012,08,16,08,37,22.10
2012,08,16,08,38,22.10
2012,08,16,08,39,22.10
2012,08,16,08,40,22.10
2012,08,16,08,41,22.10
2012,08,16,08,42,22.10
2012,08,16,08,43,22.10
2012,08,16,08,44,22.20
2012,08,16,08,45,22.20
2012,08,16,08,46,22.20
2012,08,16,08,47,22.30
2012,08,16,08,48,22.30
2012,08,16,08,49,22.30
2012,08,16,08,50,22.20
2012,08,16,08,51,22.30
2012,08,16,08,52,22.30
2012,08,16,08,53,22.40
2012,08,16,08,54,22.40
2012,08,16,08,55,22.40
2012,08,16,08,56,22.40
2012,08,16,08,57,22.40
2012,08,16,08,58,22.30
2012,08,16,08,59,22.30
2012,08,16,09,00,22.40
2012,08,16,09,01,22.50
2012,08,16,09,02,22.50
2012,08,16,09,03,22.60
2012,08,16,09,04,22.60
2012,08,16,09,05,22.50
2012,08,16,09,06,22.50
2012,08,16,09,07,22.40
2012,08,16,09,08,22.40
2012,08,16,09,09,22.40
2012,08,16,09,10,22.40
2012,08,16,09,11,22.40
2012,08,16,09,12,22.40
2012,08,16,09,13,22.40
2012,08,16,09,14,22.40
2012,08,16,09,15,22.40
2012,08,16,09,16,22.40
2012,08,16,09,17,22.40
2012,08,16,09,18,22.40
2012,08,16,09,19,22.50
2012,08,16,09,20,22.60
2012,08,16,09,21,22.70
2012,08,16,09,22,22.90
2012,08,16,09,23,22.90
2012,08,16,09,24,22.90
2012,08,16,09,25,22.90
2012,08,16,09,26,22.90
2012,08,16,09,27,22.90
2012,08,16,09,28,22.90
2012,08,16,09,29,22.90
2012,08,16,09,30,22.90
2012,08,16,09,31,22.90
2012,08,16,09,32,23.00
2012,08,16,09,33,23.00
2012,08,16,09,34,23.00
2012,08,16,09,35,22.90
2012,08,16,09,36,22.90
2012,08,16,09,37,23.00
2012,08,16,09,38,23.00
2012,08,16,09,39,23.10
2012,08,16,09,40,23.10
2012,08,16,09,41,23.10
2012,08,16,09,42,23.10
2012,08,16,09,43,23.10
2012,08,16,09,44,23.00
2012,08,16,09,45,23.00
2012,08,16,09,46,22.90
2012,08,16,09,47,22.90
2012,08,16,09,48,22.90
2012,08,16,09,49,22.90
2012,08,16,09,50,22.90
2012,08,16,09,51,22.90
2012,08,16,09,52,22.90
2012,08,16,09,53,22.90
2012,08,16,09,54,22.90
2012,08,16,09,55,22.90
2012,08,16,09,56,22.90
2012,08,16,09,57,22.90
2012,08,16,09,58,22.90
2012,08,16,09,59,22.90
2012,08,16,10,00,22.90
2012,08,16,10,01,22.90
2012,08,16,10,02,23.00
2012,08,16,10,03,23.00
2012,08,16,10,04,23.10
2012,08,16,10,05,23.10
2012,08,16,10,06,23.10
2012,08,16,10,07,23.10
2012,08,16,10,08,23.10
2012,08,16,10,09,23.10
2012,08,16,10,10,23.20
2012,08,16,10,11,23.30
2012,08,16,10,12,23.30
2012,08,16,10,13,23.30
2012,08,16,10,14,23.30
2012,08,16,10,15,23.30
2012,08,16,10,16,23.40
2012,08,16,10,17,23.50
2012,08,16,10,18,23.50
2012,08,16,10,19,23.50
2012,08,16,10,20,23.50
2012,08,16,10,21,23.60
2012,08,16,10,22,23.70
2012,08,16,10,23,23.70
2012,08,16,10,24,23.70
2012,08,16,10,25,23.60
2012,08,16,10,26,23.60
2012,08,16,10,27,23.60
2012,08,16,10,28,23.60
2012,08,16,10,29,23.60
2012,08,16,10,30,23.60
2012,08,16,10,31,23.70
2012,08,16,10,32,23.70
2012,08,16,10,33,23.80
2012,08,16,10,34,23.80
2012,08,16,10,35,23.80
2012,08,16,10,36,23.70
2012,08,16,10,37,23.70
2012,08,16,10,38,23.70
2012,08,16,10,39,23.70
2012,08,16,10,40,23.80
2012,08,16,10,41,23.90
2012,08,16,10,42,23.90
2012,08,16,10,43,24.00
2012,08,16,10,44,23.90
2012,08,16,10,45,23.80
2012,08,16,10,46,23.80
2012,08,16,10,47,23.80
2012,08,16,10,48,23.80
2012,08,16,10,49,23.80
2012,08,16,10,50,23.80
2012,08,16,10,51,23.80
2012,08,16,10,52,23.80
2012,08,16,10,53,23.90
2012,08,16,10,54,23.90
2012,08,16,10,55,23.90
2012,08,16,10,56,23.90
2012,08,16,10,57,23.90
2012,08,16,10,58,23.90
2012,08,16,10,59,24.00
2012,08,16,11,00,24.00
2012,08,16,11,01,24.10
2012,08,16,11,02,24.20
2012,08,16,11,03,24.40
2012,08,16,11,04,24.50
2012,08,16,11,05,24.60
2012,08,16,11,06,24.60
2012,08,16,11,07,24.60
2012,08,16,11,08,24.70
2012,08,16,11,09,24.80
2012,08,16,11,10,24.90
2012,08,16,11,11,24.90
2012,08,16,11,12,25.00
2012,08,16,11,13,25.10
2012,08,16,11,14,25.20
2012,08,16,11,15,25.20
2012,08,16,11,16,25.20
2012,08,16,11,17,25.30
2012,08,16,11,18,25.30
2012,08,16,11,19,25.30
2012,08,16,11,20,25.20
2012,08,16,11,21,25.20
2012,08,16,11,22,25.20
2012,08,16,11,23,25.10
2012,08,16,11,24,25.10
2012,08,16,11,25,25.10
2012,08,16,11,26,25.10
2012,08,16,11,27,25.10
2012,08,16,11,28,25.10
2012,08,16,11,29,25.10
2012,08,16,11,30,25.20
2012,08,16,11,31,25.30
2012,08,16,11,32,25.30
2012,08,16,11,33,25.50
2012,08,16,11,34,25.60
2012,08,16,11,35,25.70
2012,08,16,11,36,25.70
2012,08,16,11,37,25.70
2012,08,16,11,38,25.70
2012,08,16,11,39,25.70
2012,08,16,11,40,25.70
2012,08,16,11,41,25.70
2012,08,16,11,42,25.80
2012,08,16,11,43,25.80
2012,08,16,11,44,25.80
2012,08,16,11,45,25.90
2012,08,16,11,46,26.00
2012,08,16,11,47,26.00
2012,08,16,11,48,26.00
2012,08,16,11,49,26.00
2012,08,16,11,50,25.90
2012,08,16,11,51,26.00
2012,08,16,11,52,26.00
2012,08,16,11,53,25.90
2012,08,16,11,54,25.90
2012,08,16,11,55,25.80
2012,08,16,11,56,25.80
2012,08,16,11,57,25.80
2012,08,16,11,58,25.80
2012,08,16,11,59,25.80
2012,08,16,12,00,25.80
2012,08,16,12,01,25.80
2012,08,16,12,02,25.80
2012,08,16,12,03,25.80
2012,08,16,12,04,25.90
2012,08,16,12,05,26.00
2012,08,16,12,06,26.10
2012,08,16,12,07,26.20
2012,08,16,12,08,26.30
2012,08,16,12,09,26.30
2012,08,16,12,10,26.20
2012,08,16,12,11,26.10
2012,08,16,12,12,26.10
2012,08,16,12,13,26.10
2012,08,16,12,14,26.10
2012,08,16,12,15,26.20
2012,08,16,12,16,26.20
2012,08,16,12,17,26.20
2012,08,16,12,18,26.30
2012,08,16,12,19,26.30
2012,08,16,12,20,26.40
2012,08,16,12,21,26.40
2012,08,16,12,22,26.50
2012,08,16,12,23,26.50
2012,08,16,12,24,26.60
2012,08,16,12,25,26.70
2012,08,16,12,26,26.70
2012,08,16,12,27,26.70
2012,08,16,12,28,26.70
2012,08,16,12,29,26.60
2012,08,16,12,30,26.50
2012,08,16,12,31,26.40
2012,08,16,12,32,26.30
2012,08,16,12,33,26.20
2012,08,16,12,34,26.10
2012,08,16,12,35,26.00
2012,08,16,12,36,26.00
2012,08,16,12,37,25.90
2012,08,16,12,38,25.90
2012,08,16,12,39,25.80
2012,08,16,12,40,25.80
2012,08,16,12,41,25.80
2012,08,16,12,42,25.80
2012,08,16,12,43,25.80
2012,08,16,12,44,25.80
2012,08,16,12,45,25.80
2012,08,16,12,46,25.80
2012,08,16,12,47,25.80
2012,08,16,12,48,25.80
2012,08,16,12,49,25.80
2012,08,16,12,50,25.80
2012,08,16,12,51,25.90
2012,08,16,12,52,25.90
2012,08,16,12,53,25.90
2012,08,16,12,54,25.90
2012,08,16,12,55,26.00
2012,08,16,12,56,26.00
2012,08,16,12,57,26.10
2012,08,16,12,58,26.20
2012,08,16,12,59,26.30
2012,08,16,13,00,26.40
2012,08,16,13,01,26.40
2012,08,16,13,02,26.50
2012,08,16,13,03,26.50
2012,08,16,13,04,26.50
2012,08,16,13,05,26.50
2012,08,16,13,06,26.50
2012,08,16,13,07,26.60
2012,08,16,13,08,26.70
2012,08,16,13,09,26.70
2012,08,16,13,10,26.70
2012,08,16,13,11,26.90
2012,08,16,13,12,27.00
2012,08,16,13,13,27.00
2012,08,16,13,14,26.90
2012,08,16,13,15,26.90
2012,08,16,13,16,26.90
2012,08,16,13,17,26.90
2012,08,16,13,18,26.90
2012,08,16,13,19,26.90
2012,08,16,13,20,26.80
2012,08,16,13,21,26.80
2012,08,16,13,22,26.80
2012,08,16,13,23,26.80
2012,08,16,13,24,26.80
2012,08,16,13,25,26.80
2012,08,16,13,26,26.80
2012,08,16,13,27,26.80
2012,08,16,13,28,26.80
2012,08,16,13,29,26.80
2012,08,16,13,30,26.80
2012,08,16,13,31,26.80
2012,08,16,13,32,26.70
2012,08,16,13,33,26.70
2012,08,16,13,34,26.70
2012,08,16,13,35,26.70
2012,08,16,13,36,26.80
2012,08,16,13,37,26.90
2012,08,16,13,38,26.90
2012,08,16,13,39,26.80
2012,08,16,13,40,26.70
2012,08,16,13,41,26.70
2012,08,16,13,42,26.60
2012,08,16,13,43,26.70
2012,08,16,13,44,26.80
2012,08,16,13,45,26.90
2012,08,16,13,46,26.90
2012,08,16,13,47,27.00
2012,08,16,13,48,27.00
2012,08,16,13,49,26.90
2012,08,16,13,50,26.90
2012,08,16,13,51,26.90
2012,08,16,13,52,26.90
2012,08,16,13,53,26.90
2012,08,16,13,54,27.00
2012,08,16,13,55,27.00
2012,08,16,13,56,27.10
2012,08,16,13,57,27.20
2012,08,16,13,58,27.30
2012,08,16,13,59,27.50
2012,08,16,14,00,27.60
2012,08,16,14,01,27.60
2012,08,16,14,02,27.50
2012,08,16,14,03,27.40
2012,08,16,14,04,27.40
2012,08,16,14,05,27.30
2012,08,16,14,06,27.30
2012,08,16,14,07,27.20
2012,08,16,14,08,27.20
2012,08,16,14,09,27.20
2012,08,16,14,10,27.20
2012,08,16,14,11,27.20
2012,08,16,14,12,27.30
2012,08,16,14,13,27.40
2012,08,16,14,14,27.50
2012,08,16,14,15,27.60
2012,08,16,14,16,27.70
2012,08,16,14,17,27.70
2012,08,16,14,18,27.80
2012,08,16,14,19,28.00
2012,08,16,14,20,28.10
2012,08,16,14,21,28.20
2012,08,16,14,22,28.10
2012,08,16,14,23,28.00
2012,08,16,14,24,27.90
2012,08,16,14,25,27.80
2012,08,16,14,26,27.70
2012,08,16,14,27,27.70
2012,08,16,14,28,27.70
2012,08,16,14,29,27.70
2012,08,16,14,30,27.70
2012,08,16,14,31,27.70
2012,08,16,14,32,27.70
2012,08,16,14,33,27.70
2012,08,16,14,34,27.80
2012,08,16,14,35,27.80
2012,08,16,14,36,27.80
2012,08,16,14,37,27.80
2012,08,16,14,38,27.80
2012,08,16,14,39,27.80
2012,08,16,14,40,27.90
2012,08,16,14,41,28.00
2012,08,16,14,42,28.00
2012,08,16,14,43,28.00
2012,08,16,14,44,28.00
2012,08,16,14,45,28.00
2012,08,16,14,46,28.00
2012,08,16,14,47,28.10
2012,08,16,14,48,28.00
2012,08,16,14,49,28.00
2012,08,16,14,50,28.00
2012,08,16,14,51,28.00
2012,08,16,14,52,28.00
2012,08,16,14,53,28.20
2012,08,16,14,54,28.40
2012,08,16,14,55,28.40
2012,08,16,14,56,28.40
2012,08,16,14,57,28.30
2012,08,16,14,58,28.30
2012,08,16,14,59,28.20
2012,08,16,15,00,28.10
2012,08,16,15,01,28.10
2012,08,16,15,02,28.10
2012,08,16,15,03,28.10
2012,08,16,15,04,28.10
2012,08,16,15,05,28.10
2012,08,16,15,06,28.00
2012,08,16,15,07,28.00
2012,08,16,15,08,28.10
2012,08,16,15,09,28.10
2012,08,16,15,10,28.20
2012,08,16,15,11,28.20
2012,08,16,15,12,28.20
2012,08,16,15,13,28.10
2012,08,16,15,14,28.10
2012,08,16,15,15,28.10
2012,08,16,15,16,28.10
2012,08,16,15,17,28.00
2012,08,16,15,18,27.90
2012,08,16,15,19,27.90
2012,08,16,15,20,27.90
2012,08,16,15,21,27.90
2012,08,16,15,22,28.00
2012,08,16,15,23,28.10
2012,08,16,15,24,28.10
2012,08,16,15,25,28.10
2012,08,16,15,26,28.10
2012,08,16,15,27,28.10
2012,08,16,15,28,28.20
2012,08,16,15,29,28.20
2012,08,16,15,30,28.20
2012,08,16,15,31,28.20
2012,08,16,15,32,28.20
2012,08,16,15,33,28.20
2012,08,16,15,34,28.20
2012,08,16,15,35,28.20
2012,08,16,15,36,28.20
2012,08,16,15,37,28.20
2012,08,16,15,38,28.20
2012,08,16,15,39,28.20
2012,08,16,15,40,28.30
2012,08,16,15,41,28.30
2012,08,16,15,42,28.30
2012,08,16,15,43,28.20
2012,08,16,15,44,28.20
2012,08,16,15,45,28.10
2012,08,16,15,46,28.10
2012,08,16,15,47,28.10
2012,08,16,15,48,28.10
2012,08,16,15,49,28.10
2012,08,16,15,50,28.10
2012,08,16,15,51,28.10
2012,08,16,15,52,28.20
2012,08,16,15,53,28.20
2012,08,16,15,54,28.20
2012,08,16,15,55,28.30
2012,08,16,15,56,28.40
2012,08,16,15,57,28.50
2012,08,16,15,58,28.50
2012,08,16,15,59,28.50
2012,08,16,16,00,28.40
2012,08,16,16,01,28.40
2012,08,16,16,02,28.50
2012,08,16,16,03,28.40
2012,08,16,16,04,28.40
2012,08,16,16,05,28.40
2012,08,16,16,06,28.40
2012,08,16,16,07,28.40
2012,08,16,16,08,28.40
2012,08,16,16,09,28.40
2012,08,16,16,10,28.50
2012,08,16,16,11,28.50
2012,08,16,16,12,28.60
2012,08,16,16,13,28.60
2012,08,16,16,14,28.70
2012,08,16,16,15,28.70
2012,08,16,16,16,28.70
2012,08,16,16,17,28.70
2012,08,16,16,18,28.70
2012,08,16,16,19,28.70
2012,08,16,16,20,28.60
2012,08,16,16,21,28.60
2012,08,16,16,22,28.60
2012,08,16,16,23,28.60
2012,08,16,16,24,28.60
2012,08,16,16,25,28.60
2012,08,16,16,26,28.60
2012,08,16,16,27,28.60
2012,08,16,16,28,28.60
2012,08,16,16,29,28.70
2012,08,16,16,30,28.70
2012,08,16,16,31,29.00
2012,08,16,16,32,29.10
2012,08,16,16,33,29.00
2012,08,16,16,34,29.00
2012,08,16,16,35,28.80
2012,08,16,16,36,28.80
2012,08,16,16,37,28.70
2012,08,16,16,38,28.70
2012,08,16,16,39,28.80
2012,08,16,16,40,28.90
2012,08,16,16,41,28.90
2012,08,16,16,42,28.90
2012,08,16,16,43,28.90
2012,08,16,16,44,29.00
2012,08,16,16,45,29.10
2012,08,16,16,46,29.20
2012,08,16,16,47,29.20
2012,08,16,16,48,29.20
2012,08,16,16,49,29.20
2012,08,16,16,50,29.30
2012,08,16,16,51,29.30
2012,08,16,16,52,29.20
2012,08,16,16,53,29.20
2012,08,16,16,54,29.20
2012,08,16,16,55,29.10
2012,08,16,16,56,29.10
2012,08,16,16,57,29.00
2012,08,16,16,58,29.00
2012,08,16,16,59,28.90
2012,08,16,17,00,28.90
2012,08,16,17,01,28.90
2012,08,16,17,02,28.90
2012,08,16,17,03,28.90
2012,08,16,17,04,28.90
2012,08,16,17,05,28.90
2012,08,16,17,06,28.90
2012,08,16,17,07,29.00
2012,08,16,17,08,29.00
2012,08,16,17,09,29.00
2012,08,16,17,10,29.00
2012,08,16,17,11,28.90
2012,08,16,17,12,28.90
2012,08,16,17,13,28.90
2012,08,16,17,14,29.00
2012,08,16,17,15,29.00
2012,08,16,17,16,29.10
2012,08,16,17,17,29.20
2012,08,16,17,18,29.20
2012,08,16,17,19,29.20